Regional Weather Roundup
Issued by NWS State College, PA

Home | Current Version | Previous Version | Text Only | Print | Product List | Glossary On
Versions: 1 2 3 4 5 6 7 8 9 10 11 12 13 14 15 16 17 18 19 20 21 22 23 24 25 26 27 28 29 30 31 32 33 34 35 36 37 38 39 40 41 42 43 44 45 46 47 48 49 50
000
ASUS41 KCTP 241310
RWRCTP

REGIONAL WEATHER ROUNDUP
NATIONAL WEATHER SERVICE STATE COLLEGE PA
900 AM EDT THU APR 24 2014

Note: "fair" indicates few or no clouds below 12,000 feet with no
significant weather and/or obstructions to visibility.

* = STATION THAT DOES NOT REPORT PRECIPITATION /E.G. RAIN...SNOW...ETC/
    THUNDER OR FOG.

PAZ002>004-007>009-013>016-020>023-029>032-241400-
WESTERN PENNSYLVANIA

CITY           SKY/WX    TMP DP  RH WIND       PRES   REMARKS
ERIE           SUNNY     41  23  48 CALM      30.18R
MEADVILLE      SUNNY     39  22  50 N3        30.15R
FRANKLIN*      SUNNY     36  19  51 N5        30.17R
NEW CASTLE     FAIR      35  23  62 CALM      30.19S
BEAVER COUNTY  PTSUNNY   37  23  56 CALM      30.16S
BUTLER*        CLOUDY    36  21  55 CALM      30.18S
PITTSBURGH INT CLOUDY    38  22  52 E5        30.16S
PITTSBURGH     CLOUDY    40  19  43 CALM      30.15F
INDIANA*       CLOUDY    36  23  60 CALM      30.16S
LATROBE        MOSUNNY   37  21  52 CALM      30.18R
WASHINGTON CO* CLOUDY    36  23  60 CALM      30.19R
$$

PAZ004>006-010>012-017>019-024>028-033>037-041-042-045-046-049>053-241400-
CENTRAL PENNSYLVANIA

CITY           SKY/WX    TMP DP  RH WIND       PRES   REMARKS
BRADFORD       SUNNY     35  17  47 N9        30.09R
DUBOIS         SUNNY     37  21  52 N7        30.11R
CLEARFIELD     SUNNY     39  19  44 VRB7      30.11S
JOHNSTOWN      SUNNY     34  18  52 VRB5      30.11R
ALTOONA        SUNNY     40  22  48 VRB5      30.13R
STATE COLLEGE  SUNNY     41  18  38 NW10G17   30.11R
WILLIAMSPORT   SUNNY     44  18  35 W12       30.09R
SELINSGROVE    SUNNY     45  19  35 N10G18    30.10R
FT INDIANTOWN  SUNNY     45  15  29 VRB2G17   30.08R
CAPITAL CITY   SUNNY     46  17  31 NW10G22   30.11R
HARRISBURG     SUNNY     47  16  29 NW13G23   30.10R
YORK           SUNNY     46  19  34 NW10G21   30.11R
$$

PAZ038>040-043-044-047-048-054-055-060>062-067>071-241400-
EASTERN PENNSYLVANIA

CITY           SKY/WX    TMP DP  RH WIND       PRES   REMARKS
SCRANTON       SUNNY     41  19  41 NW14G23   30.01R
MOUNT POCONO   SUNNY     36  15  42 NW23G37   29.93R
ALLENTOWN      SUNNY     45  17  32 NW14      30.02R
QUAKERTOWN*    SUNNY     45  18  33 NW14G22   30.02S
READING        SUNNY     45  18  34 N15G26    30.06R
LANCASTER      SUNNY     45  18  34 NW16      30.08R
COATESVILLE    SUNNY     45  16  31 NW18G24   30.06R
POTTSTOWN      SUNNY     45  19  35 NW15G24   30.05R
BLUE BELL      SUNNY     46  18  31 NW10G20   30.03R
DOYLESTOWN     SUNNY     44  19  36 NW9       30.00R
WILLOW GROVE   NOT AVBL
NORTH PHILA    SUNNY     48  16  27 NW16G23   30.04R
PHILADELPHIA   SUNNY     48  13  24 NW22G30   30.04S
$$



USA.gov is the U.S. government's official web portal to all federal, state and local government web resources and services.